Location: Sommers-Bausch Observatory
(40.0037°N, 105.2635°W)
Time: 08:47:53
(UTC-07:00)

Daily predictions for brighter satellites

Satellite Brightness Start Highest point End
(mag) Time Altitude Azimuth Time Altitude Azimuth Time Altitude Azimuth
Geosat 4.2 17:24:57 10° NNE 17:30:01 82° WNW 17:35:02 10° SSW
Cosmos 2221 3.1 17:27:03 10° N 17:31:09 38° ENE 17:35:13 10° SSE
Cosmos 1908 3.2 17:28:12 10° N 17:32:06 75° E 17:35:56 10° SSE
IRS-1A Rocket 4.4 17:29:24 10° SE 17:34:43 52° ENE 17:40:09 10° N
Meteor 1-28 Rocket 3.3 17:31:27 10° N 17:35:17 88° WNW 17:39:04 10° SSW
Cosmos 968 Rocket 4.0 17:32:49 10° N 17:37:33 35° ENE 17:42:14 10° SE
FENGYUN 3A 4.2 17:36:05 10° SE 17:40:54 35° ENE 17:45:44 10° N
Meteor 1-21 Rocket 4.4 17:35:37 10° S 17:41:23 63° E 17:47:15 10° NNE
AQUARIUS 4.4 17:38:00 10° S 17:42:30 76° WSW 17:47:01 10° NNW
ATLAS 2AS CENTAUR R/B 3.0 17:34:34 10° NNW 17:42:33 75° NE 17:49:50 10° SE
KORONAS-FOTON 3.7 17:38:58 10° S 17:42:46 80° E 17:46:34 10° N
CSL-04 Debris 4.4 17:38:03 10° S 17:43:28 78° WSW 17:48:58 10° NNW
COSMO-SKYMED 1 3.0 17:40:41 10° NNE 17:44:50 43° E 17:48:57 10° S
H-2A R/B 4.4 17:43:53 10° E 17:45:53 14° ENE 17:47:55 10° NE
Cosmos 1295 Rocket 4.4 17:42:27 10° N 17:48:33 70° E 17:54:40 10° SSE
NOSS 2-1 (E) 4.0 17:46:24 10° SW 17:49:59 52° NW 17:54:02 10° NNE
Cosmos 1400 Rocket 2.9 17:46:11 10° S 17:50:07 57° E 17:54:09 10° NNE
MTI 4.2 17:51:51 10° NNE 17:54:55 41° E 17:57:57 10° S
Cosmos 1726 2.0 17:51:32 10° N 17:55:13 77° E 17:58:52 10° S
Meteor 2-14 Rocket 4.4 17:50:51 10° N 17:56:59 79° E 18:03:04 10° S
MOS 1 4.4 17:51:36 10° SE 17:57:03 54° ENE 18:02:32 10° N
METEOR-M 4.1 17:56:09 10° SSE 18:01:30 87° ENE 18:06:53 10° NNW
Cosmos 1943 3.5 17:56:40 10° SSW 18:02:16 70° WNW 18:07:54 10° NNE
Cosmos 1076 Rocket 3.5 18:00:12 10° S 18:04:31 68° E 18:08:52 10° NNE
NOSS 3-4 (A) 4.4 17:58:26 10° NNW 18:04:47 36° NE 18:11:31 10° ESE
NOSS 3-4 (C) 4.4 17:58:32 10° NNW 18:04:53 35° NE 18:11:36 10° ESE
Cosmos 2366 rocket 4.1 18:00:30 10° N 18:06:34 50° ENE 18:12:32 10° SSE
CZ-2C R/B 4.1 18:04:00 10° N 18:08:43 69° WNW 18:13:19 10° SSW
EO 1 Del DPAF 3.4 18:08:00 10° NNE 18:11:46 51° E 18:15:29 10° S
Cosmos 44 3.8 18:08:05 10° S 18:11:54 32° ESE 18:14:02 21° ENE
Cosmos 1703 4.3 18:17:39 10° SE 18:20:57 25° E 18:21:02 25° E
Meteor 2-10 4.2 18:16:36 10° NNW 18:21:37 72° W 18:26:42 10° S
Okean 3 Rocket 3.8 18:17:10 10° SSW 18:21:41 74° W 18:26:13 10° N
Cosmos 1766 Rocket 3.5 18:19:22 10° S 18:23:37 60° E 18:27:54 10° NNE
CZ-4 R/B 3.4 18:20:20 10° SSW 18:24:09 34° W 18:28:02 10° NNW
Landsat 4 3.9 18:21:40 10° N 18:25:25 72° WNW 18:29:06 10° SSW
SPOT 3 Rocket 3.4 18:24:47 10° SSE 18:29:55 82° ENE 18:35:06 10° NNW
SKYMED 2 4.3 18:28:40 10° N 18:32:54 53° WNW 18:37:07 10° SSW
Cosmos 44 Rocket 3.5 18:28:43 10° S 18:33:08 44° ESE 18:34:45 32° ENE
SL-14 R/B 4.1 18:31:10 10° SSW 18:35:05 53° W 18:38:58 10° N
OAO 3 Rocket 3.8 18:30:44 10° WSW 18:35:14 46° S 18:37:32 26° ESE
Cosmos 1626 2.0 18:35:05 10° S 18:38:45 69° E 18:40:36 28° NNE
YAOGAN 1 4.4 18:37:21 10° SSW 18:41:14 33° W 18:45:10 10° NNW
Cosmos 1300 3.7 18:37:55 10° NNW 18:41:37 48° W 18:45:17 10° SSW
USA 81 4.5 18:36:52 10° SSE 18:41:42 38° E 18:43:26 30° NE
Cosmos 2369 Rocket 3.9 18:37:48 10° NW 18:42:53 35° WSW 18:47:58 10° SSW
GEOS 3 Rocket 3.7 18:47:17 27° ESE 18:50:06 60° NE 18:55:24 10° NNW
Cosmos 1777 Rocket 3.9 18:45:23 10° NNW 18:50:36 67° ENE 18:55:50 10° SSE
ERS-2 2.7 18:50:44 10° S 18:54:21 59° WSW 18:58:00 10° NNW
Cosmos 1315 Rocket 3.7 18:51:08 10° SSW 18:54:56 47° WNW 18:58:43 10° N
Cosmos 1656 Rocket 3.5 18:53:05 10° NNW 18:58:36 85° ENE 19:04:07 10° SSE
TSX-5 4.1 18:57:15 10° SW 19:00:18 48° WNW 19:00:37 46° NW
Cosmos 1943 Rocket 3.7 18:56:27 10° NW 19:01:31 36° WSW 19:06:32 10° S
ALOS 3.9 18:57:23 10° SSW 19:01:38 35° W 19:05:55 10° NNW
Cosmos 1346 Rocket 2.6 18:58:01 10° N 19:01:58 90° E 19:05:51 10° S
Tiangong 1 3.5 19:01:42 10° WNW 19:02:19 15° WNW 19:02:19 15° WNW
Meteor 1-27 4.1 19:01:35 10° N 19:07:19 88° E 19:13:05 10° S
Cosmos 2098 Rocket 3.6 19:03:31 10° N 19:08:34 89° W 19:14:58 10° S
Meteor 1-11 4.3 19:04:10 10° SSW 19:09:43 74° W 19:15:23 10° N
Cosmos 2239 Rocket 4.5 19:04:20 10° N 19:10:20 53° E 19:10:28 52° E
CZ-3 Stage 3 3.9 19:03:53 10° WSW 19:11:07 25° S 19:12:08 23° SSE
H-2A R/B 4.1 19:16:13 10° SSW 19:19:46 39° W 19:23:23 10° NNW
Cosmos 2228 Rocket 4.0 19:20:09 10° N 19:29:57 - S 19:23:13 42° NNW
COSMOS 2406 3.1 19:19:51 10° SSW 19:25:35 84° ESE 19:25:59 77° NE
SL-24 R/B - RUBIN 2 4.4 19:29:33 10° NW 19:33:31 48° W 19:33:31 48° W
Cosmos 2058 4.2 19:32:16 10° SSW 19:35:10 37° WSW 19:35:10 37° WSW
Cosmos 2151 4.4 19:35:16 10° SSW 19:38:01 35° SW 19:38:01 35° SW
Cosmos 1241 Rocket 4.5 19:40:34 10° NNW 19:46:06 72° NW 19:46:06 72° NW
Thor Agena Rocket 4.5 19:51:33 42° NW 19:52:26 46° WNW 19:57:24 10° SW
NOSS 3-4 (A) 4.4 19:49:04 10° NW 19:56:01 56° WSW 19:59:46 30° S
NOSS 3-4 (C) 4.3 19:49:10 10° NW 19:56:08 56° WSW 19:59:44 31° S
Cosmos 1821 Rocket 4.3 19:52:49 10° NNW 19:58:53 63° W 20:05:00 10° S
